Date String (YYYY-MM-DD hh:mm:ss) UTC,Instrument flags,Ambient pressure (hPa),Sample flow (lpm),Bypass flow (lpm),Sample temperature (°C),Ambient temperature (°C),ASC tube jacket temperature (°C),LED temperature (°C),Box temperature (°C),Sample RH (%),Span deviation,Mass concentration (μg/m³),Mass concentration (μg/m³),Mass concentration (μg/m³)
DateTimeUTC,F1_M11,P_M11,Q1_M11,Q2_M11,T1_M11,T2_M11,T3_M11,T4_M11,T5_M11,U1_M11,ZSPAN_M11,X0_M11,X2_M11,X1_M11
2022-07-28 03:00:00,,0828.9,4.99,0.00,32.6,28.5,00.0,39.7,32.4,34.6,0000.0,0023.18,0008.33,0006.56
2022-07-28 03:01:00,,0828.9,5.00,0.00,32.6,28.6,00.0,39.8,32.4,34.5,0000.0,0023.32,0008.37,0006.57
2022-07-28 03:02:00,,0828.9,5.01,0.00,32.6,28.4,00.0,39.9,32.4,34.5,0000.0,0025.01,0008.38,0006.60
2022-07-28 03:03:00,,0828.9,5.01,0.00,32.6,27.8,00.0,39.9,32.3,34.4,0000.0,0025.59,0008.40,0006.61
2022-07-28 03:04:00,,0828.9,5.00,0.00,32.5,27.4,00.0,39.9,32.2,34.6,0000.0,0024.96,0008.32,0006.60
2022-07-28 03:05:00,,0829.0,5.01,0.00,32.3,27.3,00.0,39.9,32.1,34.8,0000.0,0024.09,0008.19,0006.58
2022-07-28 03:06:00,,0829.0,4.98,0.00,32.2,27.4,00.0,39.9,32.1,35.2,0000.0,0024.03,0008.15,0006.56
2022-07-28 03:07:00,,0829.0,5.02,0.00,32.3,27.5,00.0,39.9,32.2,35.0,0000.0,0025.40,0008.12,0006.55
2022-07-28 03:08:00,,0829.2,4.99,0.00,32.5,27.7,00.0,39.9,32.4,34.2,0000.0,0025.73,0008.11,0006.52
2022-07-28 03:09:00,,0829.3,5.01,0.00,32.6,27.9,00.0,40.0,32.4,34.1,0000.0,0024.76,0008.08,0006.49
2022-07-28 03:10:00,,0829.3,4.99,0.00,32.6,28.1,00.0,40.0,32.4,34.0,0000.0,0024.04,0008.00,0006.47
2022-07-28 03:11:00,,0829.3,5.02,0.00,32.6,28.3,00.0,40.1,32.4,33.9,0000.0,0022.72,0007.93,0006.44
2022-07-28 03:12:00,,0829.2,4.99,0.00,32.6,28.5,00.0,40.1,32.5,33.9,0000.0,0021.17,0007.87,0006.44
2022-07-28 03:13:00,,0829.2,4.99,0.00,32.5,28.6,00.0,40.2,32.5,33.9,0000.0,0020.16,0007.84,0006.42
2022-07-28 03:14:00,,0829.3,5.01,0.00,32.5,28.7,00.0,40.2,32.5,33.9,0000.0,0020.28,0007.76,0006.40
2022-07-28 03:15:00,,0829.2,4.99,0.00,32.5,28.4,00.0,40.2,32.5,33.8,0000.0,0019.48,0007.78,0006.39
2022-07-28 03:16:00,,0829.2,5.00,0.00,32.4,27.7,00.0,40.2,32.3,34.1,0000.0,0020.60,0007.80,0006.39
2022-07-28 03:17:00,,0829.2,5.01,0.00,32.2,27.3,00.0,40.1,32.2,34.2,0000.0,0020.68,0007.83,0006.39
2022-07-28 03:18:00,,0829.3,5.01,0.00,32.1,27.3,00.0,40.1,32.1,34.6,0000.0,0019.79,0007.84,0006.39
2022-07-28 03:19:00,,0829.2,4.98,0.00,31.9,27.4,00.0,40.1,32.0,34.9,0000.0,0018.70,0007.82,0006.40
2022-07-28 03:20:00,,0829.2,5.00,0.00,31.9,27.6,00.0,40.0,32.0,34.9,0000.0,0018.79,0007.83,0006.40
2022-07-28 03:21:00,,0829.2,5.01,0.00,31.8,27.8,00.0,40.0,32.1,34.8,0000.0,0018.57,0007.87,0006.40
2022-07-28 03:22:00,,0829.3,4.99,0.00,31.8,28.0,00.0,40.0,32.2,34.9,0000.0,0018.61,0007.89,0006.39
2022-07-28 03:23:00,,0829.3,5.01,0.00,31.8,28.1,00.0,40.0,32.2,34.8,0000.0,0018.45,0007.87,0006.39
2022-07-28 03:24:00,,0829.2,5.01,0.00,31.7,28.3,00.0,40.0,32.2,35.0,0000.0,0018.22,0007.85,0006.38
2022-07-28 03:25:00,,0829.2,5.00,0.00,31.8,28.5,00.0,40.0,32.3,34.8,0000.0,0017.72,0007.90,0006.39
2022-07-28 03:26:00,,0829.1,5.00,0.00,31.8,28.6,00.0,40.0,32.4,34.8,0000.0,0018.58,0007.90,0006.39
2022-07-28 03:27:00,,0829.1,5.00,0.00,31.8,28.7,00.0,40.0,32.4,35.0,0000.0,0017.70,0007.86,0006.38
2022-07-28 03:28:00,,0829.0,5.00,0.00,31.8,28.8,00.0,40.0,32.5,34.9,0000.0,0016.62,0007.81,0006.37
2022-07-28 03:29:00,,0828.9,4.99,0.00,31.9,28.4,00.0,39.9,32.5,34.6,0000.0,0016.16,0007.73,0006.36
2022-07-28 03:30:00,,0828.9,5.01,0.00,31.9,27.6,00.0,39.9,32.3,34.8,0000.0,0015.68,0007.73,0006.35
2022-07-28 03:31:00,,0829.3,5.00,0.00,31.8,27.3,00.0,39.8,32.2,34.8,0000.0,0015.33,0007.69,0006.33
2022-07-28 03:32:00,,0829.3,4.99,0.00,31.7,27.3,00.0,39.8,32.1,34.9,0000.0,0014.98,0007.60,0006.31
2022-07-28 03:33:00,,0829.3,5.01,0.00,31.6,27.4,00.0,39.8,32.1,35.1,0000.0,0015.03,0007.54,0006.32
2022-07-28 03:34:00,,0829.1,4.98,0.00,31.8,27.6,00.0,39.8,32.2,34.9,0000.0,0015.90,0007.55,0006.31
2022-07-28 03:35:00,,0828.9,5.01,0.00,32.0,27.8,00.0,39.8,32.3,34.5,0000.0,0016.02,0007.52,0006.28
2022-07-28 03:36:00,,0828.9,4.99,0.00,32.1,28.0,00.0,39.8,32.3,34.4,0000.0,0015.54,0007.46,0006.26
2022-07-28 03:37:00,,0829.0,5.01,0.00,32.1,28.2,00.0,39.8,32.3,34.3,0000.0,0014.37,0007.40,0006.24
2022-07-28 03:38:00,,0829.1,5.00,0.00,32.1,28.3,00.0,39.9,32.3,34.1,0000.0,0013.98,0007.39,0006.24
2022-07-28 03:39:00,,0829.1,4.99,0.00,32.1,28.5,00.0,39.9,32.4,34.2,0000.0,0014.22,0007.39,0006.22
2022-07-28 03:40:00,,0829.2,4.99,0.00,32.0,28.6,00.0,39.9,32.4,34.3,0000.0,0015.05,0007.42,0006.22
2022-07-28 03:41:00,,0829.2,5.01,0.00,32.0,28.7,00.0,40.0,32.4,34.3,0000.0,0016.60,0007.43,0006.23
2022-07-28 03:42:00,,0829.3,5.00,0.00,32.0,28.8,00.0,40.0,32.4,34.5,0000.0,0016.75,0007.42,0006.24
2022-07-28 03:43:00,,0829.4,4.99,0.00,31.9,28.3,00.0,40.0,32.4,34.5,0000.0,0016.93,0007.50,0006.25
2022-07-28 03:44:00,,0829.4,5.00,0.00,31.8,27.6,00.0,39.9,32.2,34.7,0000.0,0017.24,0007.54,0006.24
2022-07-28 03:45:00,,0829.5,5.00,0.00,31.7,27.3,00.0,39.9,32.1,35.1,0000.0,0017.44,0007.57,0006.23
2022-07-28 03:46:00,,0829.5,5.01,0.00,31.7,27.4,00.0,39.9,32.1,35.3,0000.0,0017.11,0007.63,0006.25
2022-07-28 03:47:00,,0829.5,4.99,0.00,31.9,27.5,00.0,39.8,32.2,35.3,0000.0,0017.47,0007.66,0006.24
2022-07-28 03:48:00,,0829.5,5.01,0.00,32.2,27.7,00.0,39.8,32.4,34.3,0000.0,0017.89,0007.69,0006.23
2022-07-28 03:49:00,,0829.5,4.99,0.00,32.4,27.8,00.0,39.8,32.4,33.8,0000.0,0017.92,0007.66,0006.22
2022-07-28 03:50:00,,0829.4,5.02,0.00,32.4,28.0,00.0,39.9,32.4,33.9,0000.0,0018.14,0007.63,0006.20
2022-07-28 03:51:00,,0829.3,4.99,0.00,32.4,28.2,00.0,39.9,32.4,33.8,0000.0,0017.54,0007.60,0006.19
2022-07-28 03:52:00,,0829.3,5.02,0.00,32.4,28.3,00.0,40.0,32.4,34.1,0000.0,0016.16,0007.56,0006.18
2022-07-28 03:53:00,,0829.3,5.00,0.00,32.4,28.5,00.0,40.0,32.4,33.9,0000.0,0015.14,0007.51,0006.17
2022-07-28 03:54:00,,0829.4,4.99,0.00,32.4,28.6,00.0,40.1,32.5,33.7,0000.0,0015.39,0007.49,0006.16
2022-07-28 03:55:00,,0829.4,5.01,0.00,32.3,28.7,00.0,40.1,32.5,33.5,0000.0,0015.42,0007.46,0006.14
2022-07-28 03:56:00,,0829.4,4.99,0.00,32.3,28.8,00.0,40.2,32.5,32.8,0000.0,0014.31,0007.45,0006.12
2022-07-28 03:57:00,,0829.3,5.02,0.00,32.3,28.8,00.0,40.2,32.6,32.4,0000.0,0013.99,0007.37,0006.10
2022-07-28 03:58:00,,0829.3,5.00,0.00,32.2,28.3,00.0,40.1,32.5,32.2,0000.0,0013.63,0007.33,0006.08
2022-07-28 03:59:00,,0829.4,5.00,0.00,32.1,27.6,00.0,40.1,32.3,32.5,0000.0,0013.74,0007.28,0006.06
